User: anonymous   Login
Location: Abraham Lincoln Continuation High School
(33.9711°N, 117.3662°W)
Time: 16:23:06
(UTC+00:00)
Language:

MOS 1 - Orbit

View from above orbital plane
View from above orbital plane
View from above satellite
View from above satellite

Ground track
Ground track

The orbit data is extracted from the following two-line orbital elements,

1 17527U 87018A   21173.75136066 -.00000139  00000-0 -61327-4 0  9992
2 17527  99.1038 223.2666 0008163 201.3357 268.2549 14.02584518754820
Epoch (UTC): 22 June 2021 18:01:57
Eccentricity: 0.0008163
inclination: 99.1038°
perigee height: 879 km
apogee height: 891 km
right ascension of ascending node: 223.2666°
argument of perigee: 201.3357°
revolutions per day: 14.02584518
mean anomaly at epoch: 268.2549°
orbit number at epoch: 75482

The dashed part of the orbit path shows where the satellite is in the earth's shadow,  

DLR